Location: ??? ?????
(30.6482°N, 60.5850°E)
Time: 21:58:41
(UTC+00:00)

SeaSat 1 - Pass Details

Date: 09 April 2020
Orbit: 745 x 746 km, 108.0° (Epoch: 24 May)

Event Time Altitude Azimuth Distance (km) Brightness Sun altitude
Rises 14:56:50 0° 16° (NNE) 3,191 5.7 -8.2°
Reaches altitude 10° 14:59:09 10° 11° (N) 2,264 5.0 -8.7°
Maximum altitude 15:03:52 48° 298° (WNW) 974 3.6 -9.6°
Drops below altitude 10° 15:08:34 10° 225° (SW) 2,254 5.3 -10.6°
Sets 15:10:53 0° 219° (SW) 3,174 6.0 -11.1°
